Terug naar catalogus

TIANQI-6

ActiefCommunicatieVLEO
NORAD 46810·PAYLOAD·🇨🇳 China

Gelanceerd Oct 26, 2020 vanaf Xichang Satellite Launch Center

Loading…

Volgende Passages (komende 24 uur)

TLE

VersSource: Space-Track

Epoch: Sep 14, 2026, 14:45 UTC

1 46810U 20076D   26257.61472779  .00003102  00000-0  20081-3 0  9999
2 46810  34.9982 219.3975 0011174 240.2192 119.7407 15.07675806322085

Volg TIANQI-6 in realtime met AllMySat

Download on the App Store